AKDT,Max TemperatureF,Mean TemperatureF,Min TemperatureF,Max Dew PointF,MeanDew PointF,Min DewpointF,Max Humidity, Mean Humidity, Min Humidity, Max Sea Level PressureIn, Mean Sea Level PressureIn, Min Sea Level PressureIn, Max VisibilityMiles, Mean VisibilityMiles, Min VisibilityMiles, Max Wind SpeedMPH, Mean Wind SpeedMPH, Max Gust SpeedMPH,PrecipitationIn, CloudCover, Events, WindDirDegrees
2013-6-1,57,45,35,39,35,31,96,75,43,30.28,30.17,30.04,10,10,9,16,10,,0.00,0,,10
2013-6-2,42,38,35,37,35,33,100,90,79,30.03,29.98,29.90,10,10,9,13,4,,0.00,0,,234
2013-6-3,48,40,33,41,36,32,100,82,73,29.90,29.82,29.70,10,10,10,26,14,,0.00,1,,337
2013-6-4,48,39,30,33,30,27,85,70,54,29.70,29.63,29.58,10,10,10,26,21,39,0.00,0,,352
2013-6-5,36,34,30,34,31,30,100,95,76,29.77,29.72,29.60,10,7,1,13,10,,0.19,6,Rain-Snow,146
2013-6-6,36,32,30,36,33,30,100,99,93,29.89,29.85,29.76,10,6,0,12,8,,0.15,8,Fog-Rain,192
2013-6-7,33,32,30,34,31,30,100,100,100,30.04,29.95,29.88,10,3,0,12,8,,0.00,8,Fog,236
2013-6-8,37,33,30,34,32,30,100,99,89,30.06,30.02,29.97,10,4,0,18,10,21,0.40,8,Fog-Rain-Snow,156
2013-6-9,34,32,30,33,32,31,100,100,100,30.17,30.05,29.97,5,1,0,16,10,,0.05,8,Fog-Snow,181
2013-6-10,34,33,32,34,33,32,100,100,100,30.31,30.25,30.19,6,1,0,12,7,,0.00,8,Fog,169
2013-6-11,41,36,30,38,32,30,100,99,89,30.32,30.28,30.23,10,5,0,8,6,,0.00,4,Fog,216
2013-6-12,59,42,28,46,34,28,100,91,65,30.23,30.18,30.05,10,8,1,16,7,,0.00,1,,296
2013-6-13,54,48,41,46,41,37,86,81,74,30.06,30.04,30.02,10,10,10,14,8,,0.00,1,,336
2013-6-14,59,47,39,46,41,37,100,91,67,30.14,30.08,30.00,10,7,2,16,6,,0.06,5,Rain,144
2013-6-15,46,40,35,45,41,36,100,100,100,30.14,30.10,30.05,10,1,0,15,8,,0.17,8,Fog-Rain,154
2013-6-16,51,44,37,47,42,37,100,96,83,30.37,30.28,30.14,10,8,1,15,4,,0.00,6,,241
2013-6-17,72,56,42,55,47,41,97,80,57,30.30,30.24,30.13,10,10,10,17,9,,0.00,0,,322
2013-6-18,70,58,51,54,50,48,90,76,60,30.12,30.04,29.91,10,10,10,13,7,,0.00,0,,321
2013-6-19,73,63,51,56,52,43,87,67,45,29.90,29.79,29.67,10,10,3,14,7,,0.00,0,,329
2013-6-20,61,51,43,54,47,41,100,87,75,29.84,29.78,29.65,10,9,2,16,8,,0.00,1,,259
2013-6-21,57,48,41,49,45,41,100,91,69,29.86,29.84,29.75,10,7,1,14,6,,0.00,2,,276
2013-6-22,55,52,48,52,49,47,97,89,80,29.76,29.73,29.70,10,10,7,10,5,,0.00,4,,132
2013-6-23,60,52,45,49,45,42,100,86,58,29.81,29.77,29.73,10,9,1,15,6,,0.00,1,,326
2013-6-24,52,48,44,46,42,40,90,82,74,29.85,29.84,29.82,10,10,2,16,10,,0.00,0,,310
2013-6-25,44,42,39,41,39,37,100,90,82,29.83,29.82,29.77,10,10,8,16,12,,0.00,0,,290
2013-6-26,48,42,36,43,38,35,97,85,71,29.78,29.77,29.75,10,8,2,12,8,,0.00,2,,294
2013-6-27,46,42,39,45,39,37,100,96,87,29.94,29.89,29.77,10,7,2,18,9,,0.00,7,Rain,180
2013-6-28,43,40,39,40,39,37,100,96,89,30.03,29.98,29.93,10,7,2,21,13,,0.00,8,,195
2013-6-29,55,48,41,54,47,38,100,91,77,30.01,29.87,29.73,10,8,2,13,5,,0.09,7,Rain,108
2013-6-30,53,50,46,54,49,46,100,97,89,29.72,29.54,29.45,10,6,0,21,11,,0.33,8,Fog-Rain,134